When you browse on this site, cookies collect data to enhance your experience and personalize the content and advertising you see.
Visit our Privacy Policy to learn more. By continuing to use the site, you agree to this use of cookies and data.
  • In Hungary
  • List of Countries
  • For 7 days
  • Water Temperature
  • Satellite Maps
  • Weather Map
  • News
  • Weather Widgets
  • user-avatar
    Login

    Hourly Weather Puerto Jiménez

    Today, 13 December, Thursday

    Time Temperature Precipitation Wind Pressure Humidity
    00:00 +26°C° 0 mm 1 mps 759 mmHg 82%
    01:00 +25°C° 0 mm 1 mps 759 mmHg 81%
    02:00 +25°C° 0 mm 1 mps 759 mmHg 80%
    03:00 +25°C° 0 mm 1 mps 759 mmHg 79%
    04:00 +24°C° 0 mm 1 mps 759 mmHg 78%
    05:00 +24°C° 0 mm 1 mps 759 mmHg 77%
    06:00 +24°C° 0 mm 1 mps 759 mmHg 77%
    07:00 +27°C° 0 mm 1 mps 759 mmHg 71%
    08:00 +29°C° 0 mm 1 mps 759 mmHg 65%
    09:00 +31°C° 0 mm 1 mps 759 mmHg 59%
    10:00 +32°C° 0 mm 1 mps 759 mmHg 57%
    11:00 +34°C° 0 mm 2 mps 759 mmHg 56%
    12:00 +35°C° 0 mm 2 mps 759 mmHg 54%
    13:00 +34°C° 0 mm 2 mps 758 mmHg 59%
    14:00 +32°C° 0 mm 2 mps 758 mmHg 63%
    15:00 +33°C° 0 mm 3 mps 757 mmHg 68%
    16:00 +30°C° 0 mm 2 mps 758 mmHg 75%
    17:00 +29°C° 0 mm 2 mps 758 mmHg 83%
    18:00 +28°C° 0 mm 2 mps 758 mmHg 90%
    19:00 +27°C° 0 mm 2 mps 758 mmHg 91%
    20:00 +27°C° 0 mm 2 mps 759 mmHg 92%
    21:00 +27°C° 0 mm 2 mps 759 mmHg 93%
    22:00 +27°C° 0 mm 2 mps 759 mmHg 93%
    23:00 +27°C° 0 mm 2 mps 759 mmHg 93%

    Tomorrow, 14 December, Friday

    Time Temperature Precipitation Wind Pressure Humidity
    00:00 +26°C° 0 mm 2 mps 759 mmHg 93%
    01:00 +26°C° 0 mm 2 mps 758 mmHg 93%
    02:00 +26°C° 0 mm 2 mps 758 mmHg 92%
    03:00 +26°C° 0 mm 2 mps 758 mmHg 92%
    04:00 +26°C° 0 mm 2 mps 758 mmHg 91%
    05:00 +26°C° 0 mm 2 mps 758 mmHg 91%
    06:00 +26°C° 0 mm 2 mps 759 mmHg 90%
    07:00 +28°C° 0 mm 2 mps 759 mmHg 82%
    08:00 +30°C° 0 mm 2 mps 759 mmHg 75%
    09:00 +32°C° 0 mm 2 mps 760 mmHg 67%
    10:00 +32°C° 0 mm 2 mps 759 mmHg 66%
    11:00 +34°C° 0 mm 2 mps 759 mmHg 64%
    12:00 +34°C° 0 mm 2 mps 758 mmHg 62%
    13:00 +34°C° 0 mm 2 mps 757 mmHg 64%
    14:00 +33°C° 0 mm 3 mps 757 mmHg 66%
    15:00 +33°C° 0 mm 3 mps 756 mmHg 68%
    16:00 +31°C° 0.2 mm 2 mps 757 mmHg 75%
    17:00 +29°C° 0.2 mm 2 mps 757 mmHg 81%
    18:00 +28°C° 0.2 mm 2 mps 757 mmHg 88%
    19:00 +27°C° 0 mm 1 mps 758 mmHg 89%
    20:00 +27°C° 0 mm 1 mps 759 mmHg 90%
    21:00 +27°C° 0 mm 1 mps 759 mmHg 91%
    22:00 +27°C° 0 mm 1 mps 759 mmHg 91%
    23:00 +27°C° 0 mm 1 mps 759 mmHg 92%

    Day after tomorrow, 15 December, Saturday

    Time Temperature Precipitation Wind Pressure Humidity
    00:00 +26°C° 0 mm 1 mps 759 mmHg 92%
    01:00 +26°C° 0.4 mm 1 mps 758 mmHg 92%
    02:00 +26°C° 0.4 mm 1 mps 758 mmHg 92%
    03:00 +26°C° 0.4 mm 1 mps 758 mmHg 91%
    04:00 +26°C° 0.1 mm 1 mps 758 mmHg 91%
    05:00 +26°C° 0.1 mm 1 mps 758 mmHg 90%
    06:00 +26°C° 0.1 mm 1 mps 758 mmHg 90%
    07:00 +28°C° 0.1 mm 1 mps 759 mmHg 83%
    08:00 +30°C° 0.1 mm 1 mps 759 mmHg 77%
    09:00 +32°C° 0.1 mm 1 mps 760 mmHg 71%
    10:00 +32°C° 0.1 mm 1 mps 759 mmHg 68%
    11:00 +33°C° 0.1 mm 1 mps 759 mmHg 65%
    12:00 +35°C° 0.1 mm 2 mps 758 mmHg 62%
    13:00 +34°C° 0.4 mm 2 mps 757 mmHg 66%
    14:00 +32°C° 0.4 mm 2 mps 757 mmHg 69%
    15:00 +32°C° 0.4 mm 2 mps 756 mmHg 72%
    16:00 +30°C° 0.7 mm 1 mps 756 mmHg 77%
    17:00 +29°C° 0.7 mm 1 mps 757 mmHg 83%
    18:00 +28°C° 0.7 mm 1 mps 757 mmHg 88%
    19:00 +27°C° 0.3 mm 1 mps 758 mmHg 89%
    20:00 +27°C° 0.3 mm 1 mps 759 mmHg 89%
    21:00 +27°C° 0.3 mm 1 mps 760 mmHg 90%
    22:00 +27°C° 0.5 mm 1 mps 760 mmHg 90%
    23:00 +26°C° 0.5 mm 1 mps 759 mmHg 90%

    16 December, Sunday

    Time Temperature Precipitation Wind Pressure Humidity
    00:00 +26°C° 0.5 mm 1 mps 759 mmHg 90%
    01:00 +26°C° 0.1 mm 1 mps 759 mmHg 89%
    02:00 +26°C° 0.1 mm 1 mps 758 mmHg 89%
    03:00 +26°C° 0.1 mm 1 mps 758 mmHg 89%
    04:00 +25°C° 0 mm 1 mps 758 mmHg 89%
    05:00 +25°C° 0 mm 1 mps 759 mmHg 89%
    06:00 +25°C° 0 mm 1 mps 759 mmHg 89%
    07:00 +27°C° 0 mm 1 mps 759 mmHg 82%
    08:00 +29°C° 0 mm 1 mps 760 mmHg 76%
    09:00 +32°C° 0 mm 1 mps 760 mmHg 69%
    10:00 +32°C° 0 mm 1 mps 760 mmHg 67%
    11:00 +34°C° 0 mm 2 mps 759 mmHg 64%
    12:00 +35°C° 0 mm 2 mps 758 mmHg 61%
    13:00 +34°C° 0 mm 2 mps 758 mmHg 65%
    14:00 +32°C° 0 mm 2 mps 757 mmHg 68%
    15:00 +32°C° 0 mm 2 mps 757 mmHg 71%
    16:00 +30°C° 0.2 mm 2 mps 757 mmHg 78%
    17:00 +29°C° 0.2 mm 2 mps 757 mmHg 84%
    18:00 +27°C° 0.2 mm 2 mps 758 mmHg 90%
    19:00 +27°C° 0.3 mm 1 mps 759 mmHg 90%
    20:00 +27°C° 0.3 mm 1 mps 759 mmHg 90%
    21:00 +27°C° 0.3 mm 1 mps 760 mmHg 90%
    22:00 +26°C° 0.3 mm 1 mps 760 mmHg 89%
    23:00 +26°C° 0.3 mm 1 mps 759 mmHg 89%

    17 December, Monday

    Time Temperature Precipitation Wind Pressure Humidity
    00:00 +26°C° 0.3 mm 1 mps 759 mmHg 89%
    01:00 +25°C° 0.3 mm 1 mps 759 mmHg 89%
    02:00 +25°C° 0.3 mm 1 mps 758 mmHg 89%
    03:00 +25°C° 0.3 mm 1 mps 758 mmHg 89%
    04:00 +25°C° 0.1 mm 1 mps 758 mmHg 89%
    05:00 +25°C° 0.1 mm 1 mps 759 mmHg 89%
    06:00 +25°C° 0.1 mm 1 mps 759 mmHg 89%
    07:00 +27°C° 0 mm 1 mps 759 mmHg 83%
    08:00 +29°C° 0 mm 1 mps 760 mmHg 77%
    09:00 +31°C° 0 mm 1 mps 760 mmHg 70%
    10:00 +32°C° 0.2 mm 1 mps 760 mmHg 68%
    11:00 +32°C° 0.2 mm 2 mps 759 mmHg 66%
    12:00 +34°C° 0.2 mm 2 mps 758 mmHg 64%
    13:00 +32°C° 1 mm 2 mps 758 mmHg 69%
    14:00 +31°C° 1 mm 2 mps 757 mmHg 74%
    15:00 +30°C° 1 mm 2 mps 756 mmHg 79%
    16:00 +29°C° 0.7 mm 2 mps 757 mmHg 83%
    17:00 +28°C° 0.7 mm 2 mps 757 mmHg 87%
    18:00 +27°C° 0.7 mm 1 mps 758 mmHg 91%
    19:00 +26°C° 0.2 mm 1 mps 758 mmHg 91%
    20:00 +26°C° 0.2 mm 1 mps 759 mmHg 90%
    21:00 +26°C° 0.2 mm 1 mps 759 mmHg 90%
    22:00 +26°C° 0.2 mm 1 mps 759 mmHg 89%
    23:00 +26°C° 0.2 mm 1 mps 759 mmHg 89%

    18 December, Tuesday

    Time Temperature Precipitation Wind Pressure Humidity
    00:00 +25°C° 0.2 mm 1 mps 758 mmHg 89%
    01:00 +25°C° 0 mm 1 mps 758 mmHg 88%
    02:00 +25°C° 0 mm 1 mps 758 mmHg 88%
    03:00 +25°C° 0 mm 1 mps 757 mmHg 88%
    04:00 +25°C° 0 mm 1 mps 758 mmHg 87%
    05:00 +25°C° 0 mm 1 mps 758 mmHg 87%
    06:00 +24°C° 0 mm 1 mps 758 mmHg 86%
    07:00 +27°C° 0 mm 1 mps 759 mmHg 80%
    08:00 +29°C° 0 mm 1 mps 759 mmHg 73%
    09:00 +31°C° 0 mm 1 mps 759 mmHg 66%
    10:00 +32°C° 0 mm 1 mps 758 mmHg 64%
    11:00 +33°C° 0 mm 1 mps 758 mmHg 61%
    12:00 +34°C° 0 mm 2 mps 757 mmHg 59%
    13:00 +34°C° 0.3 mm 2 mps 757 mmHg 64%
    14:00 +32°C° 0.3 mm 2 mps 756 mmHg 68%
    15:00 +31°C° 0.3 mm 2 mps 756 mmHg 72%
    16:00 +30°C° 0.1 mm 2 mps 756 mmHg 78%
    17:00 +29°C° 0.1 mm 1 mps 757 mmHg 83%
    18:00 +27°C° 0.1 mm 1 mps 757 mmHg 88%
    19:00 +27°C° 0 mm 1 mps 758 mmHg 89%
    20:00 +27°C° 0 mm 1 mps 758 mmHg 89%
    21:00 +26°C° 0 mm 1 mps 759 mmHg 89%
    22:00 +26°C° 0.2 mm 1 mps 759 mmHg 89%
    23:00 +26°C° 0.2 mm 1 mps 758 mmHg 90%
    Show more